sat.trackr.live / text

‹ back to catalog

ONEWEB-0307

NORAD 49189 · 2021-083D

PAYLOAD ACTIVE UNKNOWN

§ Identity

Operator
Country
UK
Launch date
2021-09-14
Launch site
TYMSC
Launch vehicle
Mass (kg)
RCS (m²)

Purposes: comms

External: N2YO · Heavens-Above · Gunter

§ Orbital elements

Epoch: 2026-09-19T20:21:39.421152Z

Period
109.63 min
Inclination
87.8915°
Eccentricity
0.0001920
Mean motion
13.13468766 rev/d
Perigee alt
1,208.3 km
Apogee alt
1,211.2 km
Semi-major
7,587.9 km
B*
-2.8174e-4
RAAN
301.3988°
Arg perigee
98.8663°
Mean anomaly
261.2683°
Rev number
24,335

§ Raw data

ONEWEB-03071 49189U 21083D   26262.84837293 -.00000090  00000+0 -28174-3 0  99922 49189  87.8915 301.3988 0001920  98.8663 261.2683 13.13468766243355

JSON: /api/v1/satellites/49189 · /tle

For live sub-satellite position, see the globe view (requires WebGL).

§ Visibility from observer

Set your observer location to see the next 7 days of passes ≥ 10°. The values pass through the URL so the page stays shareable.

No JS? Fill the form by hand. The geolocation button needs JavaScript.